Regional Weather Roundup
Issued by NWS

Home | Current Version | Previous Version | Graphics & Text | Print | Product List | Glossary On
Versions: 1 2 3 4 5 6 7 8 9 10 11 12 13 14 15 16 17 18 19 20 21 22 23 24 25 26 27 28 29 30 31 32 33 34 35 36 37 38 39 40 41 42 43 44 45 46 47 48 49 50
000
ASUS43 KDMX 210806
RWRIA

WEATHER ROUNDUP FOR IOWA
NATIONAL WEATHER SERVICE DES MOINES IA
300 AM CDT SAT OCT 21 2017

NOTE: "FAIR" INDICATES FEW OR NO CLOUDS BELOW 12,000 FEET WITH NO
SIGNIFICANT WEATHER AND/OR OBSTRUCTIONS TO VISIBILITY.

* - THESE STATIONS ARE NOT NWS STATIONS...THUS NOT UNDER NWS
QUALITY CONTROL.  THEY ALSO DO NOT REPORT WEATHER SUCH
AS PRECIPITATION OR FOG.

IAZ001>003-012>014-020>022-031>034-043>046-210900-
   NORTHWEST IOWA

CITY           SKY/WX    TMP DP  RH WIND       PRES   REMARKS
CHEROKEE *     CLOUDY    64  58  81 S17G23    29.63F
DENISON *      CLOUDY    63  57  82 S22G37    29.69R HAZE
LE MARS *      CLOUDY    66  59  77 S23G38    29.57F
ORANGE CITY *  CLOUDY    66  61  82 S17G23    29.59F
SHELDON *      CLOUDY    64  57  77 S14G24    29.59F
SIOUX CITY     CLOUDY    66  59  78 S17G25    29.58F
SPENCER        CLOUDY    64  56  75 S22G33    29.64F
STORM LAKE *   CLOUDY    63  55  77 S18G30    29.66S
$$

IAZ055>058-069>071-079>083-090>094-210900-
   SOUTHWEST IOWA

CITY           SKY/WX    TMP DP  RH WIND       PRES   REMARKS
ATLANTIC *     CLOUDY    63  59  88 S16G23    29.73R
AUDUBON *      LGT RAIN  63  57  82 S16G23    29.73S
CLARINDA *       N/A     66  61  82 S14G20    29.77S
COUNCIL BLFS * LGT RAIN  63  63 100 S16G25    29.66F
CRESTON *      MOCLDY    63  57  82 S18G28    29.78F
HARLAN  *      MOCLDY    63  61  94 S16G26    29.73R
LAMONI         LGT RAIN  63  56  78 S14G24    29.82F
RED OAK *      CLOUDY    64  61  88 S17G32    29.73R
SHENANDOAH *   CLOUDY    66  59  77 S12G22    29.72S
$$

IAZ047>049-059>061-072>074-084-210900-
   CENTRAL IOWA

CITY           SKY/WX    TMP DP  RH WIND       PRES   REMARKS
AMES           CLEAR     61  56  83 S16       29.78F
ANKENY *       MOCLDY    63  55  77 S14       29.80F
BOONE *        CLEAR     61  54  77 S15       29.76F
CHARITON *     PTCLDY    63  55  77 S17G26    29.82F
DES MOINES     PTCLDY    64  55  72 S18       29.79F
GRINNELL*      MOCLDY    60  53  76 SE13      29.86F
KNOXVILLE *    MOCLDY    64  54  68 S15G23    29.82F
MARSHALLTOWN   CLEAR     61  52  72 SE16      29.82F
NEWTON *       PTCLDY    61  54  77 S12       29.83F
PELLA *        CLOUDY    64  54  71 S13       29.85F
PERRY *          N/A     64  54  69 S14G22    29.75S
$$

IAZ004>006-015-016-023>025-035-036-210900-
   NORTH CENTRAL IOWA

CITY           SKY/WX    TMP DP  RH WIND       PRES   REMARKS
ALGONA *       CLOUDY    63  55  77 S18G28    29.70F
CLARION *      PTCLDY    61  55  82 S23G30    29.74F
ESTHERVILLE    CLOUDY    60  56  86 S15G25    29.66F
FORT DODGE *   CLOUDY    63  54  72 S14G23    29.72F
MASON CITY     CLOUDY    60  51  72 S16G26    29.79S
FOREST CITY *    N/A     61  52  72 S20G25    29.75F
WEBSTER CITY * CLOUDY    61  54  77 SE13G21   29.73F
IOWA FALLS *     N/A     59  52  79 SE13      29.80F
$$

IAZ007>011-017>019-026>030-037>042-050>054-066-210900-
   NORTHEAST IOWA

CITY           SKY/WX    TMP DP  RH WIND       PRES   REMARKS
CEDAR RAPIDS   PTCLDY    62  51  67 S14       29.89F
CHARLES CITY * PTCLDY    61  50  67 S17G24    29.82F
CLINTON *      MOCLDY    63  51  65 S13       29.98S
DECORAH *      CLOUDY    63  50  63 S14G23    29.85F
DUBUQUE        PTCLDY    61  50  67 S14       29.94F
MONTICELLO *   CLEAR     61  50  67 SE10      29.92F
OELWEIN *      CLOUDY    63  52  67 S18G25    29.87F
WATERLOO       CLEAR     61  50  67 S17G25    29.83F
$$

IAZ064-065-067-068-078-210900-
   EAST CENTRAL IOWA

CITY           SKY/WX    TMP DP  RH WIND       PRES   REMARKS
DAVENPORT      CLOUDY    64  50  60 S16G23    29.98S
IOWA CITY      MOCLDY    64  51  62 SE10      29.93F
MT. PLEASANT * PTCLDY    60  50  70 S14       29.94F
MUSCATINE *    CLOUDY    63  50  63 S12       29.95F
QUAD CITIES    PTCLDY    65  50  58 S10       29.96F
$$

IAZ062-063-075>077-085>089-095>099-210900-
   SOUTHEAST IOWA

CITY           SKY/WX    TMP DP  RH WIND       PRES   REMARKS
BURLINGTON     MOCLDY    62  52  69 S13       29.96F
FAIRFIELD *    CLOUDY    63  50  63 S14G23    29.91S
FORT MADISON * MOCLDY    63  52  67 S12G18    29.96F
KEOKUK *       MOCLDY    64  52  63 S10       29.95F
OSKALOOSA *      N/A     61  54  77 S14       29.87F
CENTERVILLE *    N/A     64  55  72 SE15G22   29.88F
OTTUMWA        CLOUDY    63  54  72 S17       29.88F
WASHINGTON *   PTCLDY    63  52  67 S16G22    29.92F
$$

ABBREVIATIONS USED IN REMARKS
   TC - TEMPERATURES IN CELSIUS
  WCI - WIND CHILL INDEX
   HX - HEAT INDEX
  VSB - VISIBILITY
$$





USA.gov is the U.S. government's official web portal to all federal, state and local government web resources and services.